ION Passionate Paula

operational
NORAD ID: 64545 Int'l Des: 2025-135 Owner: DORBIT Country: I
LEOCIRCULARRETROGRADESSO

ION Passionate Paulaについて

説明を読み込み中...

リアルタイム位置

3D地球を読み込み中...

次回通過

高度履歴

Altitude vs Time

uPlot chart will show altitude changes over time

軌道要素

1 64545U 25135T 26062.32690874 .00005737 00000-0 26659-3 0 9998
2 64545 97.4581 178.3819 0002397 153.7113 206.4244 15.20376342 38768
Epoch: Mar 3, 2026 • Age: 24 hours

現在のステータス

高度 507.1 km
速度 7.61 km/s
衛星直下点 31.07°N, 162.62°W
打ち上げ日 Jun 23, 2025
運用期間 0.6 years
タイプ other

技術仕様

分類 Payload
質量 150.00 kg
乾燥質量 150.00 kg
総質量 220.00 kg
長さ 0.40 m
直径 0.40 m
スパン 0.40 m
形状 Box
製造者 DORBIT
バスタイプ ION-SC
フェーズステータス In Orbit
所有者/国 DORBIT/I

大規模コンステレーション

Loading constellations...